EDT,Max TemperatureF,Mean TemperatureF,Min TemperatureF,Max Dew PointF,MeanDew PointF,Min DewpointF,Max Humidity, Mean Humidity, Min Humidity, Max Sea Level PressureIn, Mean Sea Level PressureIn, Min Sea Level PressureIn, Max VisibilityMiles, Mean VisibilityMiles, Min VisibilityMiles, Max Wind SpeedMPH, Mean Wind SpeedMPH, Max Gust SpeedMPH,PrecipitationIn, CloudCover, Events, WindDirDegrees
2013-3-1,63,60,57,52,45,39,72,59,46,30.05,30.01,29.96,10,10,10,13,9,,0.00,5,,349
2013-3-2,62,56,50,44,40,35,80,56,39,30.09,30.05,30.02,10,10,10,21,10,25,0.00,4,Rain,348
2013-3-3,60,51,42,47,39,31,93,68,42,30.20,30.09,30.01,10,10,9,18,8,25,0.10,4,Rain,350
2013-3-4,68,51,34,43,36,30,92,63,24,30.27,30.20,30.16,10,10,10,13,5,16,0.00,0,,15
2013-3-5,73,57,41,58,51,39,93,73,49,30.20,30.16,30.11,10,10,10,14,6,23,0.00,0,,212
2013-3-6,71,61,50,63,49,30,96,68,24,30.18,30.10,30.03,10,9,2,24,11,29,0.10,3,Rain,295
2013-3-7,68,56,43,44,38,32,80,57,27,30.25,30.21,30.16,10,10,10,16,8,17,0.00,0,,343
2013-3-8,78,60,41,50,42,35,93,64,21,30.26,30.21,30.15,10,8,2,15,6,,0.00,0,,2
2013-3-9,79,62,44,51,45,40,97,63,26,30.24,30.20,30.14,10,8,2,13,6,,0.00,0,,63
2013-3-10,81,68,54,55,52,50,86,60,35,30.18,30.13,30.06,10,10,10,18,8,22,0.00,1,,98
2013-3-11,81,67,54,60,57,53,97,69,42,30.12,30.04,29.96,10,10,10,17,8,22,0.00,2,,156
2013-3-12,72,66,57,68,62,51,97,85,73,30.08,29.99,29.92,10,8,2,16,11,24,0.10,5,Rain,242
2013-3-13,79,66,53,52,43,33,87,53,20,30.19,30.12,30.06,10,10,10,15,11,20,0.00,0,,349
2013-3-14,64,54,46,46,38,26,86,61,24,30.29,30.24,30.18,10,10,10,20,9,24,0.00,0,,9
2013-3-15,75,64,51,44,35,26,74,37,20,30.34,30.26,30.18,10,10,6,14,6,23,0.00,0,,31
2013-3-16,75,58,42,51,45,39,93,65,34,30.23,30.18,30.12,10,10,5,15,5,,0.00,0,,222
2013-3-17,79,62,46,57,52,44,93,72,48,30.18,30.11,30.05,10,10,8,14,4,,0.00,1,,169
2013-3-18,81,70,61,69,63,56,93,84,64,30.07,30.03,29.97,10,10,4,16,8,28,0.16,3,Rain,174
2013-3-19,84,72,62,66,64,62,100,83,49,30.04,29.98,29.86,10,9,2,16,6,25,0.00,3,,342
2013-3-20,78,68,60,64,61,55,100,88,47,30.04,29.95,29.85,10,6,0,22,4,26,0.26,3,Fog-Rain,296
2013-3-21,73,64,52,62,46,29,100,61,20,30.01,29.95,29.90,10,10,7,15,8,20,0.00,2,,352
2013-3-22,81,62,43,70,57,38,96,77,47,30.02,29.97,29.92,10,8,1,16,7,,0.64,5,Rain-Thunderstorm,111
2013-3-23,86,76,66,73,68,65,100,87,57,30.01,29.94,29.85,10,8,2,20,6,25,0.41,5,Rain-Thunderstorm,166
2013-3-24,84,76,69,73,71,66,94,86,67,29.87,29.78,29.71,10,8,1,24,14,33,0.24,6,Rain-Thunderstorm,224
2013-3-25,75,65,55,71,51,31,94,60,20,30.09,29.92,29.79,10,9,6,21,12,24,0.00,2,,335
2013-3-26,64,56,48,46,37,30,77,52,32,30.28,30.18,30.08,10,10,10,23,12,32,0.00,1,,339
2013-3-27,68,52,39,39,33,30,80,52,26,30.35,30.28,30.23,10,10,10,13,8,18,0.00,0,,3
2013-3-28,75,55,37,44,36,25,93,56,16,30.34,30.28,30.21,10,10,9,13,7,,0.00,0,,14
2013-3-29,78,60,44,47,40,33,89,55,20,30.36,30.29,30.22,10,10,10,14,5,,0.00,0,,41
2013-3-30,77,62,48,52,49,45,93,64,37,30.29,30.24,30.17,10,10,10,13,6,17,0.00,0,,151
2013-3-31,82,68,55,61,55,50,90,67,37,30.21,30.13,30.06,10,10,10,20,6,22,0.00,0,,190